Вернуться в каталог

STARLINK-35597

АктивенСвязьVLEO
NORAD 66493·PAYLOAD·🇺🇸 United States

Запущен Nov 15, 2025 с Cape Canaveral Space Force Station

Loading…

Ближайшие Пролёты (ближайшие 24 часа)

TLE

СвежийSource: CelesTrak SupGP

Эпоха: Sep 14, 2026, 22:44 UTC

1 66493C 25263J   26257.94770833 -.00016715  00000+0 -60540-3 0  2575
2 66493  43.0018   2.1475 0001477 269.1540 328.5822 15.27587053    15

Отслеживайте STARLINK-35597 в реальном времени с AllMySat

Download on the App Store